Location: Limoges
(45.8354°N, 1.2645°E)
Time: 01:17:31
(UTC+02:00)

ISS - Visible Passes

Search period start: 29 May 2022 00:00
Search period end: 08 June 2022 00:00
Orbit: 414 x 421 km, 51.6° (Epoch: 28 May)

Date Brightness Start Highest point End Pass type
(mag) Time Alt. Az. Time Alt. Az. Time Alt. Az.
29 May -1.5 00:12:53 10° W 00:14:24 15° WSW 00:14:24 15° WSW visible
29 May -2.3 23:24:14 10° W 23:27:04 25° SW 23:28:00 22° SSW visible
30 May -3.0 22:35:50 10° WNW 22:39:01 40° SW 22:41:37 14° SSE visible
31 May -1.1 23:26:35 10° WSW 23:27:04 10° SW 23:27:34 10° SW visible
01 Jun -1.6 22:36:50 10° W 22:39:05 17° SW 22:41:19 10° S visible
